Date String (YYYY-MM-DD hh:mm:ss) UTC,Instrument flags,Ambient pressure (hPa),Sample flow (lpm),Bypass flow (lpm),Sample temperature (°C),Ambient temperature (°C),ASC tube jacket temperature (°C),LED temperature (°C),Box temperature (°C),Sample RH (%),Span deviation,Mass concentration (μg/m³),Mass concentration (μg/m³),Mass concentration (μg/m³)
DateTimeUTC,F1_M11,P_M11,Q1_M11,Q2_M11,T1_M11,T2_M11,T3_M11,T4_M11,T5_M11,U1_M11,ZSPAN_M11,X0_M11,X2_M11,X1_M11
2022-10-07 15:00:00,,0838.5,4.99,0.00,26.7,24.9,00.0,35.5,28.5,20.4,-002.9,0012.51,0008.08,0006.97
2022-10-07 15:01:00,,0838.4,5.00,0.00,26.7,24.8,00.0,35.5,28.5,20.4,-002.7,0013.36,0008.26,0007.06
2022-10-07 15:02:00,,0838.4,5.01,0.00,26.6,24.8,00.0,35.5,28.5,20.4,-003.0,0013.99,0008.47,0007.18
2022-10-07 15:03:00,,0838.4,5.00,0.00,26.6,24.8,00.0,35.5,28.5,20.4,-002.5,0015.46,0008.68,0007.29
2022-10-07 15:04:00,,0838.4,5.00,0.00,26.6,24.8,00.0,35.4,28.5,20.4,-002.5,0016.39,0008.87,0007.40
2022-10-07 15:05:00,,0838.4,5.00,0.00,26.6,24.8,00.0,35.4,28.5,20.5,-002.3,0017.53,0009.09,0007.51
2022-10-07 15:06:00,,0838.4,5.02,0.00,26.6,24.8,00.0,35.4,28.5,20.5,-002.8,0018.02,0009.26,0007.61
2022-10-07 15:07:00,,0838.4,5.00,0.00,26.6,24.7,00.0,35.4,28.4,20.5,-002.5,0018.45,0009.48,0007.71
2022-10-07 15:08:00,,0838.4,5.00,0.00,26.6,24.6,00.0,35.4,28.4,20.5,-002.3,0018.77,0009.61,0007.80
2022-10-07 15:09:00,,0838.4,5.00,0.00,26.6,24.7,00.0,35.4,28.4,20.6,-002.0,0019.54,0009.69,0007.86
2022-10-07 15:10:00,,0838.5,5.02,0.00,26.6,24.7,00.0,35.4,28.4,20.6,-001.3,0021.51,0009.76,0007.91
2022-10-07 15:11:00,,0838.5,4.99,0.00,26.6,24.8,00.0,35.4,28.4,20.6,-000.9,0021.64,0009.77,0007.93
2022-10-07 15:12:00,,0838.5,5.00,0.00,26.5,24.8,00.0,35.4,28.4,20.6,-000.8,0021.27,0009.77,0007.92
2022-10-07 15:13:00,,0838.5,5.00,0.00,26.5,24.8,00.0,35.4,28.4,20.6,-000.2,0021.00,0009.73,0007.89
2022-10-07 15:14:00,,0838.5,5.01,0.00,26.5,24.8,00.0,35.3,28.4,20.6,-000.3,0019.79,0009.64,0007.86
2022-10-07 15:15:00,,0838.6,5.00,0.00,26.5,24.8,00.0,35.3,28.4,20.7,-000.4,0019.72,0009.64,0007.84
2022-10-07 15:16:00,,0838.5,5.00,0.00,26.5,24.8,00.0,35.3,28.4,20.7,-000.7,0019.17,0009.64,0007.83
2022-10-07 15:17:00,,0838.6,5.00,0.00,26.5,24.7,00.0,35.3,28.4,20.7,-000.4,0019.41,0009.71,0007.85
2022-10-07 15:18:00,,0838.5,5.00,0.00,26.5,24.7,00.0,35.3,28.4,20.7,0000.1,0019.58,0009.77,0007.88
2022-10-07 15:19:00,,0838.5,5.01,0.00,26.5,24.7,00.0,35.3,28.4,20.7,0000.4,0019.99,0009.81,0007.90
2022-10-07 15:20:00,,0838.5,5.00,0.00,26.5,24.7,00.0,35.3,28.4,20.7,0000.9,0019.92,0009.93,0007.96
2022-10-07 15:21:00,,0838.5,4.99,0.00,26.5,24.7,00.0,35.3,28.4,20.8,0000.8,0018.56,0010.02,0008.01
2022-10-07 15:22:00,,0838.6,5.00,0.00,26.5,24.7,00.0,35.3,28.4,20.7,0000.3,0018.55,0010.09,0008.04
2022-10-07 15:23:00,,0838.5,5.01,0.00,26.5,24.8,00.0,35.3,28.4,20.8,0000.3,0018.75,0010.20,0008.10
2022-10-07 15:24:00,,0838.6,5.00,0.00,26.5,24.8,00.0,35.3,28.4,20.8,-000.1,0019.07,0010.33,0008.20
2022-10-07 15:25:00,,0838.6,4.99,0.00,26.5,24.8,00.0,35.3,28.4,20.8,-000.7,0019.29,0010.42,0008.25
2022-10-07 15:26:00,,0838.5,5.00,0.00,26.5,24.8,00.0,35.3,28.4,20.8,-000.5,0018.78,0010.39,0008.28
2022-10-07 15:27:00,,0838.6,5.00,0.00,26.5,24.8,00.0,35.3,28.4,20.9,-000.3,0018.37,0010.35,0008.32
2022-10-07 15:28:00,,0838.5,5.01,0.00,26.5,24.8,00.0,35.3,28.3,20.9,-000.4,0018.37,0010.33,0008.35
2022-10-07 15:29:00,,0838.5,5.00,0.00,26.5,24.8,00.0,35.2,28.3,20.9,-000.5,0018.81,0010.29,0008.39
2022-10-07 15:30:00,,0838.6,5.00,0.00,26.5,24.8,00.0,35.2,28.3,20.9,-000.9,0018.84,0010.25,0008.43
2022-10-07 15:31:00,,0838.6,5.01,0.00,26.5,24.8,00.0,35.2,28.3,20.9,-001.1,0018.81,0010.27,0008.47
2022-10-07 15:32:00,,0838.5,5.00,0.00,26.4,24.7,00.0,35.2,28.3,20.9,-001.6,0018.29,0010.27,0008.53
2022-10-07 15:33:00,,0838.5,5.00,0.00,26.4,24.5,00.0,35.2,28.2,21.0,-001.0,0017.91,0010.23,0008.59
2022-10-07 15:34:00,,0838.5,5.01,0.00,26.4,24.5,00.0,35.2,28.2,21.0,-000.8,0018.76,0010.21,0008.61
2022-10-07 15:35:00,,0838.6,4.99,0.00,26.4,24.5,00.0,35.2,28.2,21.0,-000.6,0019.22,0010.18,0008.60
2022-10-07 15:36:00,,0838.5,4.99,0.00,26.3,24.3,00.0,35.2,28.1,21.1,-000.5,0019.72,0010.17,0008.63
2022-10-07 15:37:00,,0838.5,5.02,0.00,26.3,24.4,00.0,35.2,28.1,21.1,-000.6,0019.82,0010.22,0008.67
2022-10-07 15:38:00,,0838.5,4.99,0.00,26.3,24.4,00.0,35.1,28.1,21.4,-000.7,0020.42,0010.32,0008.70
2022-10-07 15:39:00,,0838.5,5.00,0.00,26.3,24.4,00.0,35.1,28.1,23.5,0000.0,0020.37,0010.36,0008.71
2022-10-07 15:40:00,,0838.5,4.99,0.00,26.3,24.5,00.0,35.1,28.1,24.4,-000.2,0019.72,0010.38,0008.72
2022-10-07 15:41:00,,0838.5,5.00,0.00,26.3,24.6,00.0,35.1,28.1,22.3,-000.1,0019.20,0010.37,0008.72
2022-10-07 15:42:00,,0838.5,5.01,0.00,26.3,24.6,00.0,35.1,28.1,21.6,-000.1,0019.31,0010.28,0008.66
2022-10-07 15:43:00,,0838.5,5.00,0.00,26.3,24.6,00.0,35.1,28.1,21.5,-000.2,0019.48,0010.24,0008.59
2022-10-07 15:44:00,,0838.5,5.00,0.00,26.3,24.7,00.0,35.1,28.1,21.4,-000.7,0019.67,0010.33,0008.58
2022-10-07 15:45:00,,0838.5,4.99,0.00,26.3,24.7,00.0,35.1,28.1,21.5,-000.7,0018.73,0010.34,0008.58
2022-10-07 15:46:00,,0838.5,4.98,0.00,26.3,24.7,00.0,35.1,28.1,21.4,-000.7,0017.96,0010.26,0008.55
2022-10-07 15:47:00,,0838.6,4.99,0.00,26.3,24.7,00.0,35.1,28.2,21.4,-000.6,0017.57,0010.24,0008.53
2022-10-07 15:48:00,,0838.5,5.00,0.00,26.3,24.8,00.0,35.1,28.2,21.4,-000.4,0017.44,0010.12,0008.47
2022-10-07 15:49:00,,0838.5,5.00,0.00,26.3,24.8,00.0,35.1,28.2,21.5,-000.0,0017.93,0009.98,0008.40
2022-10-07 15:50:00,,0838.5,5.00,0.00,26.3,24.8,00.0,35.1,28.2,21.6,0000.2,0018.40,0009.87,0008.33
2022-10-07 15:51:00,,0838.5,5.00,0.00,26.3,24.8,00.0,35.1,28.2,21.7,0000.2,0018.12,0009.74,0008.27
2022-10-07 15:52:00,,0838.5,4.99,0.00,26.3,24.8,00.0,35.1,28.2,21.7,0000.0,0018.00,0009.68,0008.19
2022-10-07 15:53:00,,0838.5,5.00,0.00,26.3,24.8,00.0,35.1,28.2,21.7,0000.0,0018.08,0009.63,0008.11
2022-10-07 15:54:00,,0838.5,5.00,0.00,26.3,24.8,00.0,35.1,28.2,21.7,0000.1,0017.54,0009.56,0008.07
2022-10-07 15:55:00,,0838.5,5.00,0.00,26.3,24.8,00.0,35.1,28.2,21.8,0000.7,0017.45,0009.51,0008.04
2022-10-07 15:56:00,,0838.6,4.99,0.00,26.3,24.9,00.0,35.1,28.2,21.8,0001.2,0017.22,0009.36,0007.97
2022-10-07 15:57:00,,0838.5,5.00,0.00,26.3,24.9,00.0,35.1,28.2,21.9,0001.0,0017.03,0009.28,0007.90
2022-10-07 15:58:00,,0838.5,4.99,0.00,26.3,24.9,00.0,35.1,28.2,21.9,0001.2,0016.85,0009.24,0007.85
2022-10-07 15:59:00,,0838.5,5.00,0.00,26.3,24.9,00.0,35.1,28.2,21.9,0000.9,0017.00,0009.26,0007.83
